GW6819 Weather Reports


time (UTC)temp
F
wind
direction
speed
knots
gust
knots
rain 1hr
in
rain 24hr
in
rain mn
in
humidity
%
barometer
mb
20260507132621 58 0 0.0 5.2 0.00 0.00 0.00 59 1014.8
20260507131721 58 128 0.0 8.7 0.00 0.00 0.00 58 1014.8
20260507125922 60 148 0.9 8.7 0.00 0.00 0.00 55 1014.9
20260507125021 61 148 0.9 5.2 0.00 0.00 0.00 54 1014.7
20260507122321 62 71 0.0 5.2 0.00 0.00 0.00 51 1014.9
20260507121421 62 68 1.7 8.7 0.00 0.00 0.00 53 1014.9
20260507120522 60 138 0.9 8.7 0.00 0.00 0.00 54 1015.0
20260507115622 61 0 0.0 5.2 0.00 0.00 0.00 55 1015.1
20260507114721 60 0 0.0 3.5 0.00 0.00 0.00 56 1015.0
20260507113822 60 0 0.0 5.2 0.00 0.00 0.00 57 1015.1
20260507112921 60 0 0.0 3.5 0.00 0.00 0.00 59 1015.1
20260507112021 59 0 0.0 7.0 0.00 0.00 0.00 60 1015.2
20260507110221 59 141 1.7 8.7 0.00 0.00 0.00 58 1015.2
20260507104421 61 0 0.0 3.5 0.00 0.00 0.00 60 1015.1
20260507103521 60 0 0.0 8.7 0.00 0.00 0.00 62 1015.1
20260507102621 59 0 0.0 7.0 0.00 0.00 0.00 63 1015.1
20260507101722 58 0 0.0 7.0 0.00 0.00 0.00 64 1015.1
20260507100821 58 0 0.0 7.0 0.00 0.00 0.00 66 1015.2
20260507095921 57 0 0.0 1.7 0.00 0.00 0.00 69 1015.3
20260507095021 55 0 0.0 1.7 0.00 0.00 0.00 75 1015.3
20260507094121 55 0 0.0 1.7 0.00 0.00 0.00 72 1015.3
20260507093222 56 0 0.0 3.5 0.00 0.00 0.00 70 1015.3
20260507092321 57 0 0.0 1.7 0.00 0.00 0.00 69 1015.4
20260507091421 57 0 0.0 3.5 0.00 0.00 0.00 72 1015.3
20260507090522 56 0 0.0 5.2 0.00 0.00 0.00 72 1015.3
20260507085621 56 0 0.0 3.5 0.00 0.00 0.00 73 1015.3
20260507084722 55 0 0.0 3.5 0.00 0.00 0.00 77 1015.4
20260507083821 54 0 0.0 1.7 0.00 0.00 0.00 76 1015.4
20260507082021 53 0 0.0 3.5 0.00 0.00 0.00 81 1015.4
20260507081122 52 0 0.0 3.5 0.00 0.00 0.00 82 1015.3
20260507080221 51 0 0.0 3.5 0.00 0.00 0.00 83 1015.4
20260507075322 50 0 0.0 5.2 0.00 0.00 0.00 84 1015.3
20260507074421 50 0 0.0 5.2 0.00 0.00 0.00 85 1015.3
20260507071722 46 0 0.0 3.5 0.00 0.00 0.00 92 1015.2
20260507070822 45 0 0.0 1.7 0.00 0.00 0.00 92 1015.2
20260507065921 45 0 0.0 0.0 0.00 0.00 0.00 92 1015.2
20260507065022 44 0 0.0 1.7 0.00 0.00 0.00 92 1015.2
20260507064121 43 0 0.0 0.0 0.00 0.00 0.00 92 1015.2
20260507063222 43 0 0.0 1.7 0.00 0.00 0.00 92 1015.1
20260507062321 43 0 0.0 3.5 0.00 0.00 0.00 92 1015.0
20260507061421 42 0 0.0 1.7 0.00 0.00 0.00 92 1014.9
20260507060521 42 0 0.0 1.7 0.00 0.00 0.00 92 1014.9
20260507055622 42 0 0.0 0.0 0.00 0.00 0.00 92 1014.8
20260507054721 41 0 0.0 0.0 0.00 0.00 0.00 92 1014.9
20260507053821 41 0 0.0 0.0 0.00 0.00 0.00 92 1014.9
20260507052921 42 0 0.0 0.0 0.00 0.00 0.00 92 1014.8
20260507052021 42 0 0.0 0.0 0.00 0.00 0.00 92 1014.7
20260507051121 42 0 0.0 0.0 0.00 0.00 0.00 92 1014.7
20260507050221 42 0 0.0 0.0 0.00 0.00 0.00 92 1014.7
20260507045321 42 0 0.0 0.0 0.00 0.00 0.00 92 1014.6
20260507044421 43 0 0.0 0.0 0.00 0.00 0.00 92 1014.7
20260507042621 43 0 0.0 0.0 0.00 0.00 0.00 92 1014.5
20260507041721 43 0 0.0 0.0 0.00 0.00 0.00 92 1014.6
20260507040821 43 0 0.0 0.0 0.00 0.00 0.00 92 1014.6
20260507035921 43 0 0.0 0.0 0.00 0.00 0.00 92 1014.6
20260507035021 43 0 0.0 0.0 0.00 0.00 0.00 92 1014.6
20260507034121 42 0 0.0 0.0 0.00 0.00 0.00 92 1014.6
20260507033221 42 0 0.0 0.0 0.00 0.00 0.00 92 1014.6
20260507032322 42 0 0.0 0.0 0.00 0.00 0.00 92 1014.5
20260507031421 42 0 0.0 0.0 0.00 0.00 0.00 92 1014.5
20260507030521 42 0 0.0 0.0 0.00 0.00 0.00 92 1014.5
20260507024721 41 0 0.0 0.0 0.00 0.00 0.00 92 1014.4
20260507023821 42 0 0.0 0.0 0.00 0.00 0.00 92 1014.3
20260507022921 42 0 0.0 0.0 0.00 0.00 0.00 92 1014.4
20260507022021 42 0 0.0 0.0 0.00 0.00 0.00 92 1014.4
20260507021121 42 0 0.0 0.0 0.00 0.00 0.00 91 1014.3
20260507020221 43 0 0.0 0.0 0.00 0.00 0.00 91 1014.3
20260507015321 44 0 0.0 1.7 0.00 0.00 0.00 91 1014.2
20260507014422 44 0 0.0 1.7 0.00 0.00 0.00 91 1014.2
20260507012621 45 0 0.0 0.0 0.00 0.00 0.00 90 1014.3
20260507011722 45 0 0.0 3.5 0.00 0.00 0.00 90 1014.3
20260507010822 45 0 0.0 5.2 0.00 0.00 0.00 90 1014.4
20260507002321 45 0 0.0 3.5 0.00 0.00 0.00 90 1014.4
20260507001423 45 0 0.0 1.7 0.00 0.00 0.00 90 1014.4
20260507000522 45 0 0.0 7.0 0.00 0.00 0.00 90 1014.3
20260506235621 45 0 0.0 5.2 0.00 0.00 0.00 89 1014.4
20260506234722 45 0 0.0 5.2 0.00 0.00 0.00 89 1014.5
20260506233821 45 0 0.0 5.2 0.00 0.00 0.00 89 1014.5
20260506232921 45 0 0.0 5.2 0.00 0.00 0.00 89 1014.5
20260506230221 45 0 0.0 3.5 0.00 0.00 0.00 89 1014.5
20260506225322 45 0 0.0 3.5 0.00 0.00 0.00 88 1014.5
20260506224421 45 0 0.0 8.7 0.00 0.00 0.00 88 1014.5
20260506223521 45 0 0.0 8.7 0.00 0.00 0.00 88 1014.5
20260506222621 46 0 0.0 7.0 0.00 0.00 0.00 88 1014.4
20260506221721 46 0 0.0 3.5 0.00 0.00 0.00 88 1014.3
20260506220821 46 0 0.0 1.7 0.00 0.00 0.00 88 1014.4
20260506215921 46 0 0.0 7.0 0.00 0.00 0.00 88 1014.4
20260506215021 46 0 0.0 5.2 0.00 0.00 0.00 88 1014.4
20260506214121 46 0 0.0 7.0 0.00 0.00 0.00 87 1014.4
20260506213221 46 0 0.0 5.2 0.00 0.00 0.00 88 1014.4
20260506212322 46 0 0.0 8.7 0.00 0.00 0.00 88 1014.3
20260506211421 46 0 0.0 3.5 0.00 0.00 0.00 88 1014.3
20260506210522 46 0 0.0 7.0 0.00 0.00 0.00 88 1014.3
20260506205621 46 0 0.0 5.2 0.00 0.00 0.00 88 1014.1
20260506204721 46 0 0.0 8.7 0.00 0.00 0.00 88 1014.0
20260506203822 46 0 0.0 8.7 0.00 0.00 0.00 88 1014.0
20260506202921 46 11 0.9 5.2 0.00 0.00 0.00 88 1014.0
20260506202022 46 14 0.9 7.0 0.00 0.00 0.00 88 1013.9
20260506201121 46 2 1.7 10.4 0.00 0.00 0.00 87 1013.9
20260506200221 46 23 1.7 8.7 0.00 0.00 0.00 87 1013.9
20260506194421 46 356 1.7 10.4 0.00 0.00 0.00 86 1013.7
20260506193521 46 325 1.7 10.4 0.00 0.00 0.00 86 1013.7
20260506192621 47 321 2.6 12.2 0.00 0.00 0.00 86 1013.6
20260506191721 47 4 3.5 13.9 0.00 0.00 0.00 86 1013.5
20260506190821 47 341 3.5 15.6 0.00 0.00 0.00 85 1013.6
20260506185021 47 336 3.5 13.9 0.00 0.00 0.00 85 1013.5
20260506184122 47 316 3.5 17.4 0.00 0.00 0.00 84 1013.5
20260506183222 48 312 3.5 10.4 0.00 0.00 0.00 83 1013.5
20260506182322 48 327 3.5 15.6 0.00 0.00 0.00 82 1013.5
20260506181421 48 325 3.5 13.9 0.00 0.00 0.00 83 1013.4
20260506175622 49 311 3.5 13.9 0.00 0.00 0.00 82 1013.2
20260506174721 49 338 3.5 19.1 0.00 0.00 0.00 81 1013.1
20260506172921 50 334 2.6 10.4 0.00 0.00 0.00 79 1013.0
20260506165321 51 325 3.5 17.4 0.00 0.00 0.00 75 1012.7
20260506164421 51 316 3.5 13.9 0.00 0.00 0.00 74 1012.7
20260506163521 52 323 2.6 15.6 0.00 0.00 0.00 73 1012.7
20260506160821 52 341 1.7 15.6 0.00 0.00 0.00 71 1012.7
20260506155021 53 324 2.6 12.2 0.00 0.00 0.00 69 1012.7
20260506154121 53 336 1.7 12.2 0.00 0.00 0.00 68 1012.7
20260506153221 53 314 1.7 12.2 0.00 0.00 0.00 65 1012.7
20260506152321 53 317 1.7 12.2 0.00 0.00 0.00 64 1012.7
20260506151422 53 327 2.6 10.4 0.00 0.00 0.00 64 1012.7
20260506150522 53 337 1.7 10.4 0.00 0.00 0.00 63 1012.6
20260506145622 53 328 1.7 7.0 0.00 0.00 0.00 63 1012.6
20260506144721 53 333 1.7 8.7 0.00 0.00 0.00 63 1012.6
20260506143821 53 312 1.7 10.4 0.00 0.00 0.00 62 1012.5
20260506142921 52 319 2.6 8.7 0.00 0.00 0.00 62 1012.6
20260506142022 52 319 3.5 13.9 0.00 0.00 0.00 62 1012.6
20260506141121 52 318 1.7 15.6 0.00 0.00 0.00 60 1012.6
20260506140221 52 313 2.6 10.4 0.00 0.00 0.00 65 1012.7
20260506135321 52 331 3.5 10.4 0.00 0.00 0.00 66 1012.7
20260506134422 52 350 3.5 15.6 0.00 0.00 0.00 66 1012.8
20260506133521 52 338 2.6 13.9 0.00 0.00 0.00 65 1012.8